Theta_e
305 309 309 307 308 307 305 304 305 305 304 306 307 306 307 307 307 307 306 302 301 304 305 303 302 300 297 296 295 294 293 293 293 293 293 292 292 291 290 289 288 287 286 286 285 285 284 284 283 283 282 282 281 281 280 280 279 279 279 279 279 278 278 278 279 279 280 279 279 280 280 280 280 280 279 279 278 277 276 276 276 276 276 276 277 277
307 309 307 305 304 303 303 302 302 304 304 305 306 306 306 306 306 306 304 302 301 303 304 302 301 299 296 296 294 294 294 293 293 293 293 292 292 291 290 288 287 287 286 286 285 285 284 283 283 282 282 281 281 280 280 279 279 278 278 278 278 277 277 277 278 278 278 278 278 278 279 278 278 279 278 277 277 276 276 276 275 275 276 276 276 277
309 308 305 302 301 300 301 301 302 304 305 305 305 305 306 306 306 305 303 302 301 303 304 302 302 299 295 295 294 293 293 293 293 293 292 292 291 291 290 288 287 286 286 286 285 284 284 283 283 282 281 281 280 280 279 279 278 278 278 277 277 277 277 277 276 277 278 277 277 277 277 277 277 277 277 276 276 275 275 275 275 275 275 274 275 276
308 306 302 300 299 301 303 303 303 305 305 305 305 305 306 305 305 305 304 302 301 302 304 302 302 299 296 295 294 293 293 292 292 292 292 292 291 291 289 288 287 286 286 285 285 284 283 283 282 282 281 280 280 279 279 278 277 277 277 277 277 276 276 276 276 277 277 276 275 275 275 275 276 276 276 275 275 275 275 275 274 274 274 274 274 275
307 303 299 299 301 302 304 305 304 305 306 305 304 305 305 304 303 304 303 303 303 303 302 301 303 301 297 297 295 293 293 292 292 292 291 291 291 290 289 288 287 286 286 284 284 284 283 282 282 281 281 280 279 279 279 278 277 276 276 276 276 276 276 276 275 275 275 275 274 274 274 274 275 275 275 274 274 274 274 274 274 273 273 273 273 275
305 300 298 302 303 303 305 305 303 304 305 305 303 302 302 302 302 302 303 303 304 304 302 301 304 303 297 296 295 294 293 293 292 292 291 291 290 290 288 287 286 286 285 285 284 283 283 282 281 281 280 280 279 278 278 277 276 275 275 275 275 275 275 275 274 273 273 273 273 273 273 274 274 274 274 274 274 274 274 273 272 271 272 272 273 274
303 300 300 303 304 305 305 304 302 302 304 305 302 299 299 301 301 302 302 303 304 305 302 300 303 303 299 296 295 295 294 293 292 291 291 291 290 289 288 287 286 285 285 284 284 283 283 282 281 280 279 279 278 278 278 277 275 274 274 274 274 274 273 273 273 272 272 272 272 272 273 273 274 274 274 274 273 273 273 272 271 271 271 272 272 272
303 302 302 303 304 305 303 303 301 300 303 304 300 297 299 300 301 301 301 302 303 302 302 301 302 303 302 298 295 295 294 293 292 291 291 290 290 289 288 287 286 286 285 284 284 283 282 281 281 280 278 277 277 276 277 276 275 274 274 273 273 273 273 273 273 272 271 271 272 272 272 273 273 273 273 273 272 272 272 271 271 271 271 271 271 271
302 303 302 303 304 302 302 302 300 299 302 303 300 298 299 299 300 300 300 302 301 301 303 302 300 302 303 298 294 295 295 294 293 292 291 290 289 289 287 287 286 285 285 284 283 283 281 280 280 279 278 276 275 275 276 276 274 274 273 273 273 272 272 273 273 271 271 271 271 271 272 272 273 273 273 272 272 271 271 270 270 270 271 271 271 270
300 301 301 302 302 301 301 301 298 298 301 301 299 298 298 297 298 299 300 301 301 302 303 300 299 302 303 299 296 297 296 295 293 291 291 290 289 288 287 287 286 285 285 284 283 282 281 280 279 278 277 276 275 275 275 275 275 274 273 273 273 272 272 272 272 271 270 271 271 271 271 271 272 272 272 271 271 271 270 270 270 270 270 270 270 270
299 300 301 301 300 300 300 299 297 297 300 300 299 300 300 298 298 299 300 300 302 303 301 298 298 300 302 300 297 297 296 295 293 291 291 290 289 289 288 287 286 285 284 283 283 281 281 280 279 278 277 276 275 275 275 275 275 274 273 273 273 272 271 270 270 270 270 270 270 270 270 271 271 271 271 270 270 270 269 269 269 269 270 270 270 269
301 302 302 300 299 299 299 299 298 297 299 300 300 301 302 301 300 300 300 300 302 302 299 297 298 299 301 300 296 294 294 294 293 292 291 290 290 289 288 287 286 285 284 284 283 282 281 280 279 278 277 276 275 274 274 274 275 274 273 273 272 272 271 270 270 269 269 270 270 270 270 270 271 271 270 270 269 269 268 268 268 269 269 269 269 269
302 300 299 300 299 298 299 300 300 300 300 300 300 301 302 302 302 302 302 301 302 301 299 298 298 299 300 296 293 293 293 292 292 291 291 291 290 289 288 287 286 286 285 284 283 282 281 280 279 278 277 276 275 274 274 274 274 273 272 272 272 272 271 270 270 269 269 269 269 269 269 270 270 270 269 269 269 268 268 268 268 268 268 268 268 268
302 299 299 300 299 298 299 299 300 300 300 299 299 300 301 301 302 302 302 301 301 301 299 297 297 299 299 295 291 292 291 291 291 290 290 290 290 289 288 287 287 286 285 284 283 281 280 279 278 277 277 276 275 275 274 273 274 273 272 272 272 271 271 270 269 269 268 268 268 268 268 269 269 269 269 269 268 267 267 267 267 267 267 267 267 267
302 301 299 299 299 298 298 297 297 298 298 298 298 299 300 300 301 302 302 301 301 300 299 297 297 299 299 294 290 290 290 289 289 289 289 289 290 289 288 288 287 286 285 284 282 281 279 278 278 277 276 275 275 274 273 273 273 272 271 272 271 271 270 269 269 269 268 268 268 268 268 268 269 269 268 268 268 267 266 266 266 266 266 266 266 266
301 301 298 297 297 297 297 296 296 297 298 299 298 299 299 298 298 300 300 299 299 299 298 298 298 297 294 292 290 290 290 289 288 288 288 288 289 289 289 289 288 287 285 284 282 280 279 278 277 277 276 275 274 274 273 272 272 271 271 271 271 270 270 269 269 268 268 267 267 267 267 267 268 268 268 267 267 266 266 266 266 266 266 265 265 265
301 301 298 297 297 296 296 296 296 296 298 298 298 298 297 296 297 299 299 298 297 298 298 298 298 295 293 292 291 290 291 290 288 288 287 287 287 287 288 288 288 288 286 284 282 281 279 278 277 276 275 274 273 273 273 272 272 271 270 270 270 270 270 269 269 268 267 267 267 267 267 267 267 267 267 267 266 265 265 265 265 265 265 265 265 264
299 301 299 297 298 296 293 295 296 296 296 298 298 297 296 295 296 298 298 298 298 298 298 298 297 294 294 294 292 291 292 291 289 288 288 287 287 286 286 286 287 288 286 283 282 281 279 278 277 276 275 274 273 273 272 272 271 270 270 270 269 269 269 269 268 268 267 267 266 266 266 266 266 267 267 266 265 265 264 264 264 264 264 264 264 264
297 300 299 296 297 297 295 295 297 296 296 297 297 296 296 296 297 298 298 298 298 298 298 297 296 294 293 293 293 293 293 292 290 289 289 288 287 286 286 285 286 287 285 283 282 281 280 278 277 276 275 274 273 273 272 271 271 270 270 269 269 268 268 268 268 267 267 266 266 266 266 265 266 266 266 266 265 264 264 264 264 264 264 263 263 263
296 299 299 297 297 297 297 297 298 297 296 296 297 296 296 296 297 297 296 296 297 298 298 297 297 296 293 292 293 293 292 291 290 290 290 288 287 286 286 285 285 286 286 284 283 282 280 278 277 275 275 274 273 272 272 271 271 270 269 269 268 268 267 267 267 267 266 266 265 265 265 265 265 265 265 265 264 264 264 263 263 263 263 263 263 263
297 298 298 298 298 297 297 296 296 297 296 296 297 296 296 296 296 296 295 296 296 297 298 297 297 296 293 292 292 292 291 290 290 290 289 288 287 286 286 286 285 286 286 285 283 282 280 278 276 275 275 274 273 272 271 271 270 270 269 269 268 267 267 267 267 266 266 265 265 265 265 265 264 265 265 264 264 264 263 263 263 263 262 262 262 262
297 298 297 298 298 298 297 295 294 295 296 295 296 296 295 295 296 296 295 295 295 296 297 296 296 295 294 292 292 292 291 290 290 289 288 287 287 286 286 286 285 285 285 284 282 281 279 277 276 275 274 273 272 272 271 270 270 269 269 268 268 267 267 266 266 266 265 265 265 265 264 264 264 264 264 264 263 263 263 263 262 262 262 262 262 262
295 297 297 297 297 296 295 293 292 293 294 294 294 294 294 294 295 296 296 295 295 295 295 294 295 295 293 292 291 292 291 290 289 288 288 287 286 286 286 285 285 284 284 283 282 280 279 278 276 275 274 273 272 271 271 270 269 268 268 268 268 267 266 266 266 265 265 265 264 264 264 264 264 264 263 263 263 263 263 262 262 262 261 261 261 261
295 296 296 297 296 295 294 292 292 292 294 294 294 293 293 293 294 294 294 294 294 294 293 292 294 294 293 291 291 291 290 289 289 288 288 287 287 286 286 285 285 284 283 282 281 280 279 277 276 275 274 274 273 272 271 270 269 268 268 268 267 267 266 266 265 265 265 264 264 264 264 264 263 263 263 263 262 262 262 262 261 261 261 261 261 261
296 296 296 296 296 295 294 294 293 294 295 294 294 293 292 292 292 292 292 292 293 293 291 291 292 293 293 291 291 291 290 290 289 289 288 288 287 287 286 285 285 284 283 281 280 280 278 277 276 276 275 274 273 272 271 270 269 268 267 267 267 267 266 266 265 265 264 264 264 263 263 263 263 263 263 262 262 262 262 261 261 261 261 261 260 260
295 295 295 295 295 294 293 294 295 296 295 294 293 292 292 292 292 292 292 292 292 292 290 290 292 292 293 292 292 291 290 290 290 289 289 288 287 287 286 285 285 284 283 281 280 279 278 277 277 276 274 273 272 271 270 269 268 268 267 267 267 266 266 265 265 264 264 263 263 263 263 263 263 262 262 262 262 261 261 261 261 260 260 260 260 260
294 295 294 295 295 295 295 295 295 295 295 294 294 292 292 292 292 292 292 292 292 291 291 291 292 292 292 291 291 290 290 290 289 289 288 288 287 286 286 285 284 283 283 281 280 279 278 277 276 275 274 273 272 271 270 269 268 267 267 266 266 266 265 265 264 264 263 263 263 263 263 262 262 262 262 261 261 261 261 260 260 260 260 260 259 259
295 295 293 294 296 295 295 295 294 294 294 294 294 293 292 291 291 291 291 291 291 290 292 292 291 291 291 290 290 290 289 289 289 288 288 287 287 286 285 285 284 283 283 281 279 278 278 277 276 275 274 273 272 270 269 268 268 267 266 266 266 265 265 264 264 263 263 263 263 263 262 262 262 261 261 261 261 260 260 260 260 259 259 259 259 258
295 294 292 294 295 294 294 294 293 293 293 293 293 292 292 291 291 290 290 290 290 290 291 291 290 290 290 290 289 289 288 288 288 288 287 286 286 285 284 284 283 283 282 281 279 278 277 276 275 274 273 272 271 270 269 268 267 267 266 266 265 265 265 264 263 263 263 263 262 262 262 262 261 261 261 260 260 260 260 259 259 259 258 258 258 258
293 295 294 292 294 294 293 292 291 292 292 292 291 291 291 291 290 290 290 290 290 290 290 290 290 289 289 289 289 288 288 288 287 287 287 286 285 284 283 283 282 282 281 281 280 278 277 276 275 273 272 271 271 270 268 268 267 266 266 265 265 265 264 264 263 263 262 262 262 262 261 261 261 260 260 260 260 259 259 259 258 258 258 257 257 257
292 294 293 290 293 295 293 292 291 291 292 292 292 291 290 290 290 290 290 290 290 290 290 289 289 289 289 289 288 288 288 287 287 287 286 285 285 284 283 282 282 281 281 280 279 277 276 276 274 273 272 271 270 269 268 267 266 266 265 265 265 264 264 263 263 262 262 262 262 261 261 261 260 260 260 259 259 259 258 258 258 257 257 257 256 256
293 292 290 290 293 294 293 292 292 291 290 291 292 292 291 290 290 290 290 290 290 290 290 289 289 290 290 288 288 288 287 287 287 286 285 285 284 283 282 282 282 281 280 279 277 276 276 275 273 272 271 270 269 268 267 267 266 265 265 264 264 264 263 263 262 262 262 261 261 261 260 260 260 260 259 259 258 258 258 257 257 256 256 256 256 256
290 292 291 291 293 293 292 291 291 290 290 292 293 292 292 291 290 290 290 289 289 289 289 290 290 290 289 288 288 288 287 286 286 285 285 284 283 283 282 281 281 281 279 278 276 275 275 274 273 272 271 269 268 267 267 266 265 265 264 264 263 263 262 262 262 261 261 261 261 260 260 260 259 259 259 258 258 257 257 256 256 256 256 256 255 255
287 291 291 290 292 293 292 290 290 290 291 292 291 291 292 291 290 290 290 289 289 289 289 289 289 289 288 288 287 287 286 286 285 285 284 284 283 282 282 281 281 279 278 277 276 275 274 273 272 271 270 268 268 267 266 265 265 264 264 263 263 263 262 262 261 261 261 260 260 260 259 259 259 258 258 258 257 257 256 256 256 256 255 255 255 255
291 291 289 288 290 292 290 290 291 292 292 291 290 290 290 290 289 289 289 289 289 289 289 289 288 288 288 287 287 286 286 285 285 284 284 283 283 282 281 281 279 278 277 276 276 275 274 273 271 270 269 268 267 266 265 265 264 264 263 263 262 262 262 261 261 261 260 260 259 259 259 259 258 258 257 257 257 256 256 255 255 255 255 255 255 255
292 291 290 289 289 290 290 290 291 292 291 290 289 289 289 289 289 288 289 290 289 289 289 288 288 288 287 287 286 285 285 285 284 284 283 283 282 281 280 280 279 278 277 277 276 274 273 272 270 269 268 267 266 266 265 264 264 263 263 262 262 261 261 261 260 260 260 259 259 259 258 258 258 257 257 256 256 256 255 255 255 255 255 254 255 255
290 291 291 290 289 289 290 290 290 291 291 291 290 290 289 289 288 288 289 290 288 288 288 288 287 287 286 286 286 285 285 284 283 283 283 282 281 280 279 279 278 278 277 276 274 273 272 270 269 268 267 266 266 265 265 264 263 263 262 262 261 261 261 260 260 260 259 259 259 258 258 257 257 257 256 256 255 255 255 255 255 254 254 254 254 254
288 290 291 292 290 289 289 290 290 291 292 291 290 289 288 288 287 287 287 288 288 288 287 287 287 286 286 286 285 284 284 283 283 283 282 280 279 279 278 278 278 277 275 274 273 272 270 269 268 267 266 266 265 265 264 263 263 262 262 262 261 261 260 260 260 259 259 258 258 258 257 257 256 256 256 255 255 255 254 254 254 254 254 254 254 254
287 287 289 290 290 288 289 290 290 291 292 291 289 288 288 287 286 286 288 289 289 287 287 286 286 286 285 285 284 284 283 283 283 283 282 281 280 279 278 277 277 275 274 273 272 271 270 269 268 267 266 265 265 264 264 263 262 262 262 261 261 260 260 260 259 259 258 258 258 257 257 256 256 256 255 255 255 254 254 254 254 254 254 254 254 254
289 287 288 290 290 288 288 289 289 291 291 289 288 288 287 286 286 287 290 290 287 286 286 286 285 285 285 284 284 284 283 283 283 282 282 282 281 280 278 277 276 275 274 273 271 270 269 268 267 266 266 265 265 264 264 263 262 262 261 261 260 260 259 259 259 258 258 257 257 257 256 256 256 255 255 255 254 254 254 254 254 254 254 253 254 254
290 288 286 287 289 288 288 289 289 290 290 288 288 288 286 286 286 288 291 290 286 286 286 286 285 285 285 284 284 283 283 283 282 282 282 282 281 280 279 278 276 274 273 272 270 269 268 267 266 266 265 265 265 264 263 263 262 262 261 260 260 259 259 259 258 258 257 257 257 256 256 256 256 255 255 255 254 254 254 254 253 253 253 253 254 254
290 289 286 285 287 287 286 287 288 290 289 288 287 287 286 287 289 290 290 288 286 287 287 286 285 285 285 284 284 284 283 283 282 281 281 280 280 279 279 278 276 274 272 271 270 269 268 267 266 266 265 265 264 263 263 262 262 261 261 260 259 259 259 258 258 257 257 257 256 256 256 256 256 255 255 255 254 254 254 254 254 253 253 253 253 253
290 291 290 288 288 287 285 286 289 290 289 287 287 287 286 287 290 290 289 288 287 287 286 286 286 285 285 284 284 283 283 282 281 281 280 279 279 279 278 277 276 274 272 271 270 268 267 267 266 265 265 264 264 263 263 262 261 261 260 260 259 259 259 258 257 257 257 256 256 256 256 256 256 256 255 255 255 254 253 254 253 253 253 253 253 253
289 291 291 290 288 287 288 291 293 292 288 286 288 289 288 288 290 289 288 288 287 287 286 286 286 285 284 284 283 282 282 281 280 280 279 279 278 278 277 276 275 273 272 270 269 268 267 266 266 265 265 264 263 263 262 262 261 260 260 260 260 259 258 257 257 257 256 256 256 256 256 256 256 256 256 255 255 254 253 253 253 253 253 253 254 254
290 289 290 289 289 289 290 292 292 291 289 287 288 289 289 289 289 288 287 287 287 287 286 286 285 284 283 283 282 281 280 280 279 279 278 278 277 277 276 275 274 273 271 270 269 267 266 266 265 265 264 264 263 263 262 261 260 260 259 260 259 258 258 257 257 256 256 256 256 256 256 256 256 256 256 256 255 253 253 253 253 253 253 254 254 254
289 287 287 288 289 289 289 290 290 290 290 289 289 288 288 288 288 287 287 286 286 286 286 285 284 284 283 282 281 280 279 279 279 278 278 277 277 276 275 274 273 272 270 269 268 267 266 265 265 264 264 263 263 262 261 261 260 259 259 259 259 258 258 257 257 256 256 256 256 256 255 255 255 256 256 255 255 253 253 253 253 253 253 254 254 254
287 285 287 289 289 289 290 290 290 290 290 290 289 289 288 287 287 287 286 286 286 285 285 284 283 283 282 281 280 279 279 278 278 277 277 276 275 275 274 273 272 271 269 268 268 267 266 265 264 264 264 263 263 262 261 261 260 260 259 259 259 258 257 257 256 256 256 256 256 255 255 255 254 254 254 255 254 254 253 253 253 253 253 254 254 254
287 285 287 289 289 289 290 291 290 289 290 289 289 289 288 288 288 287 286 286 285 284 284 284 282 281 280 280 279 278 278 278 277 277 276 275 275 274 273 272 271 270 269 268 267 266 265 265 264 264 263 263 262 262 261 261 260 260 260 259 259 258 257 257 256 256 256 256 255 255 255 254 254 254 253 254 253 253 253 253 253 253 253 253 254 254
286 286 288 289 289 289 290 290 290 289 290 289 289 289 288 287 287 286 285 284 284 283 283 283 282 281 280 279 279 278 277 277 277 276 275 274 274 273 272 272 270 269 268 267 266 265 265 264 264 263 263 262 262 261 261 261 260 260 260 259 259 258 257 257 256 256 256 256 255 255 255 254 254 253 253 253 253 253 254 254 253 253 253 254 254 255
286 289 289 288 289 291 290 290 290 289 289 289 289 289 288 286 285 284 284 284 283 283 283 281 281 280 279 279 278 277 276 276 276 276 274 273 273 272 272 271 270 269 268 267 266 265 264 264 263 263 262 262 262 261 261 260 260 260 259 259 258 258 257 256 256 255 255 255 255 255 254 254 254 254 253 253 253 253 253 254 255 255 254 255 255 256
288 290 290 289 291 292 291 290 290 289 289 289 289 289 287 286 285 284 284 284 283 283 282 280 279 279 279 278 278 277 276 276 275 274 273 273 272 271 270 270 269 268 267 266 265 265 264 263 263 262 262 262 262 261 261 260 260 260 259 259 258 257 257 256 255 255 255 255 255 255 255 254 254 253 253 253 253 252 252 253 255 256 257 257 256 256
Wind_Speed
2 1 3 3 4 5 5 3 3 3 2 4 5 5 7 7 7 6 3 3 2 4 4 1 1 5 8 9 10 8 7 9 8 9 9 10 10 11 12 14 14 14 14 16 18 19 19 19 18 19 19 20 22 23 24 26 26 26 25 26 27 26 26 25 23 21 20 20 20 18 16 16 14 12 12 12 13 15 15 16 17 16 17 17 17 16
1 3 5 4 4 5 5 2 1 1 1 3 4 5 5 5 7 6 3 3 1 2 1 3 1 5 8 8 9 8 8 8 7 9 10 11 12 11 13 14 14 13 13 16 18 18 18 18 18 18 19 21 22 21 23 24 23 23 24 24 22 21 23 23 23 20 17 17 17 15 13 13 11 9 11 10 10 13 13 14 17 16 17 18 17 17
3 5 5 6 3 2 1 2 1 2 2 3 3 5 5 4 7 4 1 2 2 2 2 2 2 3 8 8 10 10 8 8 7 9 10 11 12 11 12 13 13 12 12 14 16 16 17 18 17 18 19 20 20 19 20 21 21 22 22 20 18 19 21 23 24 20 16 15 15 13 12 12 10 8 9 9 9 12 12 13 16 16 18 19 17 16
4 5 6 5 2 3 3 3 3 3 1 3 3 4 5 5 6 3 1 2 1 4 4 2 3 2 7 8 10 10 9 9 10 11 11 10 12 12 12 11 11 12 12 12 13 15 16 17 18 18 18 17 18 18 19 20 20 20 19 18 16 18 20 21 21 18 14 13 14 13 12 11 9 8 8 8 9 12 13 13 15 16 17 19 17 15
6 3 4 3 1 4 5 6 7 5 4 4 2 3 6 7 7 6 6 8 5 4 2 4 5 2 5 6 8 8 8 10 9 11 12 11 11 11 11 11 11 11 11 11 12 13 15 16 17 17 17 17 17 18 18 19 19 17 17 18 17 17 19 19 19 17 14 14 15 15 13 11 11 10 10 11 12 14 14 14 16 18 17 17 16 14
6 3 3 4 4 5 5 7 8 6 6 4 3 3 6 7 8 10 10 10 7 2 2 3 6 1 5 6 6 6 7 9 8 9 11 10 11 10 10 10 10 10 11 11 11 12 13 15 15 16 18 18 17 16 14 16 18 16 17 21 22 20 20 19 17 18 18 16 15 14 13 12 11 11 11 12 13 14 14 15 17 19 18 15 14 14
4 2 2 5 5 6 7 6 6 5 7 5 2 2 5 7 9 11 9 7 6 4 1 1 6 3 3 6 6 5 7 8 8 9 9 9 8 8 8 8 9 9 9 10 11 12 13 13 14 16 17 17 16 14 12 13 17 21 23 26 26 23 22 19 17 19 20 16 14 13 11 11 10 10 10 10 11 12 13 16 17 17 16 14 13 14
4 5 6 7 5 7 9 7 6 5 6 4 1 3 6 9 10 8 7 5 4 6 2 3 5 6 2 4 5 5 7 8 7 8 8 7 8 8 8 8 8 8 7 8 9 11 12 12 13 14 15 16 15 13 10 11 18 26 27 26 25 23 20 17 16 19 19 15 14 12 11 10 9 9 10 10 11 11 13 16 17 16 16 13 13 15
4 7 8 8 8 9 7 7 6 4 5 3 2 6 8 8 6 5 5 4 3 5 2 2 3 6 3 3 4 3 4 5 6 7 7 7 8 8 8 8 8 8 8 8 8 10 11 11 12 12 12 13 14 13 10 11 19 25 26 25 22 20 18 15 15 17 18 15 13 12 11 11 10 9 9 10 12 12 14 16 16 16 15 14 14 15
3 4 4 5 9 8 7 7 4 2 4 5 6 9 6 2 1 2 3 2 2 2 3 7 6 5 3 3 4 1 1 3 5 6 6 7 7 7 7 7 7 7 7 8 9 9 9 9 9 8 9 10 11 13 12 13 18 23 24 23 19 16 17 16 15 17 17 15 13 12 12 12 11 10 10 11 12 13 16 17 17 16 15 14 14 14
2 0 1 3 5 4 7 5 1 1 5 7 8 8 3 3 2 1 0 1 3 1 5 7 5 4 5 2 4 3 3 1 5 5 6 7 7 7 6 6 6 5 5 6 7 7 7 7 6 5 7 9 11 15 17 16 17 19 19 18 15 13 16 18 17 18 17 15 13 13 13 13 11 11 11 13 14 15 17 17 16 16 15 14 14 14
3 2 1 1 2 4 5 2 2 3 6 5 6 7 4 0 1 1 1 0 3 4 4 5 5 5 6 2 6 8 6 4 5 5 5 6 6 6 5 5 4 4 3 4 4 4 4 4 4 5 7 10 13 18 20 17 15 16 15 15 14 13 16 18 17 17 17 14 13 13 12 12 10 10 11 12 13 15 17 16 16 15 15 14 14 14
3 4 3 2 1 5 7 4 2 1 5 8 8 8 7 5 3 3 3 3 4 4 3 5 6 5 2 5 8 10 9 8 7 7 6 6 6 5 5 4 3 2 2 2 2 3 2 2 4 6 8 11 13 15 17 15 13 14 13 13 13 12 14 15 14 15 16 14 13 12 12 11 10 9 10 11 12 14 15 15 15 15 15 15 14 14
3 4 5 4 1 6 10 8 5 4 7 10 8 8 7 5 5 5 6 6 6 5 4 5 5 3 1 6 9 10 10 10 10 10 9 8 6 4 3 2 2 3 3 3 3 4 3 3 3 5 7 9 10 11 13 13 10 11 12 11 11 11 12 13 13 13 14 14 13 12 11 11 10 9 9 10 11 13 14 14 14 14 14 14 15 15
3 2 7 9 5 8 10 7 4 4 4 6 5 6 6 5 4 5 7 8 9 9 8 5 3 4 3 4 8 9 9 10 10 9 8 7 5 2 3 3 4 4 4 4 4 3 3 3 3 4 5 7 8 9 10 11 10 10 11 10 11 11 11 12 12 12 13 14 13 13 12 11 10 9 9 10 11 14 14 13 13 13 14 14 15 16
2 3 5 4 2 7 8 4 4 5 3 5 4 4 6 4 2 4 6 5 7 9 6 2 2 4 4 4 5 5 6 7 7 6 6 4 3 1 2 3 4 5 4 4 4 3 3 3 3 3 3 5 7 7 8 10 9 10 11 10 10 11 11 11 12 11 13 14 14 13 12 12 11 10 10 10 12 14 14 13 13 14 14 15 15 16
2 3 4 2 2 4 5 4 6 5 4 3 4 6 6 3 2 3 4 3 4 6 4 3 3 3 3 3 3 2 2 4 4 3 2 1 1 1 3 4 4 5 5 5 4 4 3 3 3 2 1 3 7 7 7 9 9 9 10 9 10 11 11 11 12 11 12 13 13 12 12 12 12 11 10 11 14 15 14 13 14 14 14 15 16 16
2 1 4 4 4 4 0 2 8 8 4 3 5 7 6 2 2 2 3 3 5 6 6 5 4 4 2 1 1 3 5 4 3 3 4 4 3 2 2 4 6 6 5 5 5 6 5 4 4 2 0 2 6 7 6 8 8 8 9 9 10 11 11 11 12 11 12 13 13 12 12 13 13 11 11 12 14 15 14 15 15 15 15 16 16 17
2 2 3 2 3 2 1 1 4 8 7 6 3 5 4 0 1 2 3 4 6 6 7 3 4 2 1 1 2 5 7 8 7 6 8 7 6 4 3 4 6 5 4 6 6 7 6 5 4 2 1 2 6 7 7 8 8 8 9 9 9 11 11 11 11 11 12 13 12 12 13 13 13 12 12 13 14 14 15 15 15 15 16 16 17 17
2 2 3 2 1 1 1 4 4 6 7 5 2 4 4 1 2 3 2 3 4 5 7 6 3 2 1 2 5 6 8 10 9 8 8 7 6 5 4 4 5 5 5 7 6 7 6 5 4 2 2 4 5 7 7 8 8 9 9 9 9 11 11 11 11 11 11 12 12 12 13 13 13 13 12 13 14 15 15 15 15 16 16 17 17 17
2 1 3 3 3 0 2 5 5 6 6 5 5 6 5 2 1 1 1 1 2 4 5 7 8 4 3 4 6 8 9 10 10 8 6 5 5 5 5 6 6 6 7 7 6 6 6 5 4 4 4 4 5 6 7 7 8 8 9 9 9 10 11 10 11 11 11 12 12 12 13 13 13 13 12 13 14 15 15 15 16 16 17 17 18 18
2 1 3 3 3 2 3 3 4 5 7 6 5 4 4 3 2 2 1 1 1 4 4 6 9 5 3 5 7 9 9 8 8 6 5 5 6 6 6 7 6 7 8 6 6 6 7 6 5 5 5 5 5 6 6 7 7 8 9 9 9 10 10 10 11 11 12 12 12 13 13 13 13 13 13 14 15 15 15 16 17 17 18 18 18 18
2 1 2 2 3 4 5 3 2 3 8 7 5 3 2 2 2 3 4 2 2 3 2 5 7 3 3 7 8 8 7 7 7 6 7 7 7 7 7 7 7 7 6 6 7 7 7 7 7 6 6 6 6 6 6 7 8 9 10 10 10 10 10 11 11 11 12 13 13 13 14 13 13 14 14 15 15 15 16 17 17 17 17 18 18 18
0 1 2 1 2 3 6 3 2 2 4 5 3 3 2 2 2 3 4 3 3 3 2 4 6 3 2 6 7 6 7 7 7 8 9 9 8 9 9 9 8 7 7 7 8 8 8 8 8 7 7 6 6 6 7 8 9 10 10 10 10 11 11 12 12 12 13 13 14 14 14 14 14 14 14 15 15 16 17 17 17 17 18 18 18 18
1 1 3 2 1 1 3 2 2 2 2 3 2 3 4 3 3 3 2 2 3 2 0 3 7 4 2 5 6 6 8 9 9 10 10 10 10 10 11 11 11 10 8 8 8 9 9 9 8 7 6 6 6 7 9 10 10 11 11 11 11 12 12 12 12 13 13 14 14 14 14 14 14 14 14 15 15 16 17 17 17 18 18 18 19 19
1 1 2 1 2 2 2 3 3 2 3 1 0 2 4 3 3 3 2 4 4 1 1 5 9 7 2 3 5 7 9 10 11 11 10 10 11 11 12 12 12 13 11 8 8 8 9 9 8 7 7 7 8 9 10 10 11 12 12 12 12 12 13 13 13 13 14 14 14 14 14 14 14 14 14 15 16 16 17 17 17 18 18 19 19 20
1 1 2 0 2 3 4 5 4 4 5 4 1 2 4 4 3 3 4 4 4 3 5 7 8 11 12 10 10 9 8 9 10 11 11 11 12 12 12 13 13 14 12 9 8 8 9 8 8 7 8 9 9 10 10 11 11 12 12 12 12 12 12 12 12 13 14 14 14 14 14 14 14 14 15 15 16 16 17 18 18 18 19 19 19 20
2 1 2 1 5 6 6 8 6 3 7 7 3 4 6 5 3 4 5 5 2 4 7 6 6 12 16 14 14 14 11 8 9 11 12 12 12 13 13 15 16 16 14 10 8 8 9 8 7 8 9 10 11 11 11 11 11 12 12 12 12 12 12 12 12 13 14 13 14 14 13 14 14 14 14 15 16 17 17 17 18 19 19 19 18 18
1 1 1 1 6 8 8 8 5 4 7 6 6 7 7 6 7 7 7 6 5 6 9 10 12 15 16 15 15 13 9 8 10 12 13 13 14 15 16 18 18 17 17 13 10 9 8 7 8 9 10 11 11 12 12 11 11 12 12 12 12 12 12 12 12 13 14 14 14 13 13 14 14 14 15 16 17 17 17 18 19 19 18 18 17 17
1 0 2 1 5 9 6 4 4 5 7 7 8 10 9 8 9 9 9 9 9 12 14 16 18 19 15 14 13 9 7 8 9 11 13 15 16 17 18 19 19 18 17 13 10 8 7 8 9 10 11 11 12 12 12 12 12 12 12 12 12 12 12 12 12 13 13 14 14 14 14 14 14 15 16 16 17 18 18 19 18 17 18 19 20 22
1 1 2 2 4 6 3 3 3 6 8 9 10 10 9 9 10 10 9 8 9 12 14 15 17 16 10 7 8 7 7 10 12 13 15 17 17 18 19 19 20 19 15 10 8 7 8 9 10 11 11 12 12 12 12 12 12 12 12 12 12 12 12 12 13 13 14 14 14 14 14 14 14 15 16 16 18 17 17 16 17 20 22 23 23 24
2 1 2 1 3 2 3 2 7 6 7 10 11 11 12 11 9 8 7 7 8 10 12 12 12 11 7 4 6 9 11 14 16 17 18 17 16 18 19 20 20 19 13 8 7 7 8 10 11 11 11 12 12 12 11 11 12 12 12 12 12 12 12 12 13 14 14 14 14 14 14 14 14 15 16 17 16 15 15 17 21 25 25 24 25 25
1 1 1 0 4 1 2 5 9 5 4 6 5 8 13 12 10 9 9 10 12 10 9 9 9 11 12 11 11 13 15 17 17 17 17 17 17 18 19 20 19 15 9 6 7 8 9 10 10 11 11 11 11 11 11 11 11 12 13 12 12 12 13 13 13 14 14 14 14 14 14 14 15 16 16 15 14 15 18 22 26 27 24 24 26 26
1 1 1 0 3 2 3 8 7 3 3 3 1 4 9 10 10 12 12 12 12 11 11 12 13 15 15 13 14 16 18 18 18 18 17 17 17 18 19 19 15 9 6 7 8 9 10 10 11 11 11 11 11 11 11 11 11 12 12 12 12 13 13 13 13 13 14 14 14 14 14 14 15 14 14 14 15 18 21 24 27 27 25 24 24 24
2 0 1 0 2 3 4 7 4 2 2 1 3 4 6 6 7 11 16 17 16 16 16 16 17 17 14 13 14 17 19 19 19 20 19 18 17 17 18 16 10 7 7 8 8 9 10 11 11 11 11 11 11 11 11 11 11 12 12 12 12 13 13 13 13 13 14 14 14 14 14 13 13 13 14 15 17 19 22 24 26 27 24 21 22 23
1 1 1 0 1 3 3 3 2 7 6 1 4 4 4 4 5 8 14 14 14 14 15 15 16 14 12 14 16 16 19 19 19 19 18 17 15 13 13 11 9 9 9 10 10 11 11 11 11 12 12 11 11 11 11 12 11 11 12 12 12 13 13 13 14 13 14 14 15 15 14 13 13 14 16 18 19 21 23 25 26 27 23 21 22 23
1 2 1 1 1 1 4 3 4 9 9 2 3 3 4 3 2 3 9 10 8 9 11 13 13 12 13 17 18 16 17 18 16 15 12 10 10 10 11 11 11 12 12 12 12 11 11 11 11 11 11 11 12 12 12 12 11 11 12 13 13 14 13 13 14 14 14 15 15 14 13 13 15 17 19 19 20 22 25 26 28 27 23 21 22 23
1 1 1 2 1 1 2 5 4 5 5 0 3 4 4 1 1 2 5 10 6 7 9 9 10 11 14 18 18 16 16 15 14 10 3 4 7 9 11 13 13 13 13 13 12 11 10 11 11 11 11 12 13 13 12 12 11 11 13 13 13 13 13 14 14 14 14 15 14 12 13 16 19 19 18 20 22 24 26 27 28 27 22 20 22 24
2 1 1 2 2 1 2 4 2 4 5 0 4 6 5 3 3 3 5 8 2 6 8 8 10 12 13 16 17 15 12 12 13 9 3 5 9 8 10 11 12 13 13 12 12 12 11 11 11 11 12 13 13 13 12 11 11 12 13 13 13 13 14 14 15 14 15 14 13 13 16 19 20 19 19 22 24 25 27 28 27 25 21 19 21 22
2 1 0 2 3 2 3 3 3 5 6 1 7 7 5 5 5 2 8 6 3 7 8 8 10 12 12 15 16 13 11 11 13 13 14 18 18 12 10 11 10 11 12 11 11 11 11 11 11 12 13 14 14 13 12 12 12 13 15 14 14 14 16 17 16 15 14 13 13 17 19 18 19 21 23 24 26 26 27 27 26 24 21 20 21 21
1 1 1 2 2 2 4 4 4 5 5 3 7 8 8 6 4 5 7 2 3 5 7 7 10 12 12 15 15 12 13 15 17 19 21 23 22 19 18 16 11 10 11 11 11 11 11 11 12 13 14 15 14 12 12 12 13 15 15 14 14 17 19 19 16 13 13 13 14 16 18 19 21 24 25 25 26 26 26 25 26 25 23 21 20 20
1 1 1 1 1 2 3 3 5 6 3 4 7 7 7 4 5 5 4 1 2 6 8 9 11 12 12 15 17 16 17 20 21 22 22 21 20 20 23 22 15 10 9 10 11 11 11 12 12 13 15 14 13 13 12 12 14 16 15 13 16 20 20 17 13 12 14 15 16 17 19 22 24 25 25 26 25 26 26 26 25 25 24 22 21 22
2 1 2 2 2 2 1 2 4 6 1 9 9 6 6 6 6 6 5 5 6 8 9 10 11 11 11 13 15 16 19 21 22 22 21 20 19 20 22 23 20 14 10 10 11 12 12 12 12 13 14 14 13 12 12 12 15 15 14 16 20 22 20 15 13 14 16 17 18 20 23 25 25 25 25 26 25 26 27 26 25 25 25 23 21 21
4 3 2 2 3 2 2 4 3 2 3 10 8 4 7 9 8 8 9 10 8 7 8 9 10 9 9 11 15 18 20 21 22 21 19 18 18 19 21 22 22 18 12 10 12 12 12 12 13 13 14 13 13 13 12 13 15 15 17 21 23 22 19 18 16 16 18 19 21 23 24 25 25 25 25 25 25 25 25 25 24 24 23 20 18 16
5 5 2 2 4 4 5 7 5 2 1 8 9 9 11 12 11 10 11 11 10 8 8 8 9 9 9 12 17 18 17 18 20 20 18 18 18 19 21 23 23 18 13 12 12 12 12 13 13 13 14 15 14 14 14 15 16 18 21 23 22 21 20 19 18 19 20 22 23 24 24 25 25 25 25 24 24 23 23 23 21 20 18 15 13 12
3 3 1 2 3 4 10 12 11 10 11 9 10 11 12 13 11 9 10 10 10 9 8 7 9 10 11 13 15 15 14 16 19 19 18 17 18 19 21 24 22 16 12 12 13 13 13 13 13 13 15 16 16 15 16 17 18 20 23 24 22 21 21 20 20 21 22 23 23 24 24 25 25 25 25 25 23 23 22 20 18 17 15 13 11 12
2 4 4 5 2 3 7 8 7 10 13 11 10 10 11 12 11 9 9 10 9 9 9 9 10 12 12 13 13 14 17 18 19 19 17 15 16 18 20 21 18 14 13 13 14 14 13 12 12 13 15 17 18 17 18 20 21 22 24 24 22 21 21 20 21 22 22 23 23 23 24 24 24 24 24 24 24 23 21 18 17 15 13 11 12 13
3 4 5 7 7 7 10 10 9 13 15 13 12 11 9 10 11 9 8 8 8 9 11 12 12 11 11 13 14 16 19 20 20 18 16 14 14 17 18 16 14 12 13 14 14 14 13 12 13 14 15 18 20 21 21 23 24 24 24 24 22 21 21 21 21 22 23 23 23 23 23 23 22 21 20 21 24 23 20 18 16 15 13 14 14 14
4 3 4 4 6 9 12 13 12 14 14 11 10 9 8 8 9 8 7 7 9 11 13 14 13 12 13 15 15 16 18 20 19 18 15 14 14 16 17 17 14 13 13 13 14 15 15 15 15 16 17 20 23 23 23 24 25 25 24 23 22 21 21 21 21 22 23 23 22 23 23 21 20 19 19 20 22 23 23 22 20 18 19 20 18 17
4 5 4 2 4 8 8 7 7 9 12 10 8 7 6 6 6 7 8 9 11 11 11 13 14 15 15 16 17 17 17 17 18 18 16 14 14 16 20 22 19 15 13 13 13 14 15 17 19 19 21 23 24 24 24 25 26 25 24 23 22 21 21 21 20 21 23 23 22 21 19 17 17 17 18 18 17 19 23 25 24 22 21 21 20 20
7 7 6 5 6 8 7 7 6 6 11 13 11 7 4 3 5 8 10 11 11 11 10 11 14 16 16 16 18 19 18 18 18 17 14 14 17 20 22 21 18 15 14 13 13 14 15 18 20 21 22 24 24 24 25 26 26 26 24 23 22 21 20 20 19 21 22 20 18 17 17 17 18 18 19 18 17 17 19 21 24 25 23 21 19 20
Wind_Direction
279 13 56 26 4 349 341 332 304 309 280 275 278 275 287 292 295 304 328 46 27 286 278 279 38 43 31 23 26 30 59 83 96 105 105 107 103 97 99 97 93 89 86 83 76 71 69 66 65 62 60 57 55 51 48 47 44 41 38 35 33 29 28 27 24 23 20 17 13 10 9 5 2 3 3 4 2 2 2 0 2 6 3 1 1 357
231 47 46 7 346 333 335 341 293 298 289 294 292 294 299 290 299 317 346 14 32 277 301 126 126 59 49 33 35 40 57 69 85 106 109 106 102 99 100 98 96 94 90 84 75 69 66 63 62 59 55 53 51 48 46 45 41 38 36 34 31 27 27 26 24 23 21 18 14 7 3 357 354 358 359 0 1 2 4 3 7 10 7 5 3 1
79 63 28 353 335 299 338 83 322 309 308 313 314 303 311 324 313 310 84 60 86 276 303 147 235 69 71 53 48 48 55 63 70 94 104 104 104 103 102 101 101 99 91 82 74 69 65 61 58 56 52 50 49 48 45 42 39 36 34 31 29 27 26 25 23 22 19 15 11 4 358 353 350 351 354 359 359 1 4 4 8 9 4 3 3 1
60 43 5 344 315 305 340 47 353 312 309 328 330 310 317 352 334 312 40 29 222 256 292 305 268 119 94 75 65 57 63 74 74 82 88 96 104 103 102 102 101 98 89 83 76 69 65 60 56 54 50 48 47 46 43 38 35 33 31 28 27 27 26 24 21 21 16 8 4 1 359 357 354 349 352 357 358 2 3 3 5 2 357 358 359 359
68 25 329 309 313 342 354 32 17 347 354 350 353 338 323 337 327 302 314 317 283 228 239 296 273 181 96 70 74 71 73 81 84 87 87 93 104 103 99 93 89 89 86 82 76 68 65 61 57 54 50 47 45 43 42 38 32 30 29 28 28 27 24 23 21 19 12 4 2 1 1 1 360 357 357 359 357 359 1 0 357 353 351 353 354 356
64 16 307 331 357 13 23 40 26 349 338 348 44 15 326 324 314 299 310 316 301 249 109 320 297 283 94 72 73 83 83 84 87 95 99 103 108 104 96 90 84 82 81 79 76 70 67 64 60 54 47 44 42 40 41 37 31 31 30 27 26 24 21 21 19 15 11 7 3 3 2 0 359 357 358 358 354 354 355 351 346 347 350 350 352 353
45 6 333 356 5 30 41 48 32 349 329 344 46 349 303 304 301 301 317 318 306 322 24 287 299 293 111 80 72 90 95 96 98 103 110 112 112 105 93 92 89 85 83 79 76 71 66 63 59 53 46 42 39 36 36 32 27 29 28 24 22 21 19 19 15 10 10 9 4 3 2 357 355 352 351 354 352 349 346 342 340 343 346 347 349 349
10 8 19 16 21 34 29 17 13 355 328 344 42 305 296 297 299 310 317 295 298 319 286 208 278 283 267 77 84 103 102 111 119 117 117 114 112 106 93 91 88 84 84 81 75 69 64 59 57 53 46 41 36 32 31 27 24 25 25 21 18 18 18 18 13 9 10 9 3 1 359 355 352 349 346 348 348 345 341 341 341 341 342 344 345 346
17 21 20 15 28 32 12 342 339 328 316 341 339 294 289 294 301 306 300 283 301 313 322 42 333 289 285 100 121 141 123 132 134 124 121 118 112 102 94 91 86 81 79 77 73 67 62 59 58 56 48 40 34 31 28 24 21 21 20 18 15 15 17 16 10 7 8 8 3 360 357 353 349 348 346 345 345 344 342 342 341 341 342 341 340 343
41 28 356 5 29 17 338 324 327 326 325 320 296 281 262 238 273 279 298 298 271 276 16 9 348 309 319 101 136 192 193 161 142 128 122 121 112 100 98 93 87 84 77 75 74 69 63 60 59 58 51 40 32 28 28 24 19 17 15 14 14 15 14 12 8 5 4 4 1 358 354 350 348 347 346 344 344 345 344 342 342 342 341 338 337 339
96 206 280 24 33 334 303 317 37 238 289 289 289 291 258 161 154 196 108 265 270 36 41 5 352 323 320 55 90 18 351 117 144 135 125 122 110 98 99 92 87 84 81 83 81 75 67 59 54 52 47 38 29 26 25 22 17 14 12 11 13 12 7 5 4 3 2 1 358 355 351 346 345 345 344 344 345 345 344 342 340 339 336 335 334 333
110 100 76 68 3 315 291 301 110 221 270 300 325 338 342 341 151 182 140 64 329 5 46 24 2 303 294 21 43 17 25 78 122 122 120 119 105 94 91 86 89 89 96 105 95 79 63 47 37 37 37 30 24 21 20 17 12 10 8 5 7 5 1 2 0 360 360 358 354 351 346 343 340 340 342 341 342 343 341 338 335 333 332 331 330 329
98 93 62 174 188 353 341 354 49 258 337 4 6 4 2 355 2 350 354 2 336 349 38 19 351 302 291 52 25 21 46 62 68 74 76 78 82 89 88 88 107 126 140 144 134 120 85 45 32 31 30 24 20 17 14 11 7 5 2 359 1 360 358 358 355 355 356 353 350 346 342 338 332 331 335 335 337 338 336 332 330 329 327 326 325 325
79 119 30 23 41 357 6 23 26 358 7 17 12 9 13 3 353 346 350 346 323 327 342 337 332 305 99 59 30 35 55 53 53 56 50 54 69 91 110 132 165 185 186 181 168 153 123 78 51 37 33 23 15 11 7 5 1 358 355 353 354 352 351 352 349 349 350 348 345 342 338 333 326 323 327 329 333 335 332 328 325 324 322 321 320 320
18 84 21 20 0 349 17 34 351 314 1 23 7 6 26 28 3 337 339 339 321 317 317 311 333 346 359 40 41 52 61 53 51 49 43 47 55 98 167 186 196 206 203 186 169 151 123 95 77 54 41 24 11 4 3 1 355 352 349 346 346 343 342 346 343 341 345 344 340 338 335 331 323 316 319 323 328 330 327 322 319 318 317 317 316 316
3 82 44 37 357 357 22 29 307 292 357 27 358 1 22 13 331 306 312 309 299 307 321 350 48 40 56 81 72 72 74 66 63 54 51 43 18 352 242 237 219 219 212 186 170 157 138 116 99 76 52 23 7 358 357 356 350 346 344 340 339 335 332 336 336 334 338 339 335 333 331 329 322 312 311 317 324 326 322 318 317 315 314 316 315 314
4 79 69 66 86 44 22 13 17 356 336 6 10 5 357 316 253 308 302 262 279 303 326 355 22 60 101 124 119 145 135 97 94 77 82 91 343 314 299 290 254 237 217 191 184 182 173 152 136 108 73 20 1 352 348 349 344 341 340 336 333 329 324 327 328 326 329 333 331 328 326 327 323 311 306 313 321 324 321 318 317 314 314 315 315 313
333 7 68 39 40 66 5 342 49 37 351 7 23 352 325 252 179 351 323 317 329 317 318 343 45 54 28 81 143 220 221 189 175 193 202 207 208 217 280 295 286 270 216 192 200 200 193 179 167 154 126 357 356 348 338 340 338 334 334 331 330 328 321 321 323 319 322 327 327 325 324 325 323 314 306 312 320 321 320 318 316 314 313 313 312 311
317 317 96 78 14 54 186 256 59 54 47 62 42 333 328 352 311 347 345 330 332 322 316 336 116 111 352 353 299 259 230 217 214 216 219 218 209 214 247 281 293 286 213 199 217 215 206 195 186 186 292 320 344 343 334 335 332 326 326 323 324 326 319 316 317 314 317 321 321 320 319 319 320 316 308 310 317 318 317 315 313 311 311 311 310 308
290 348 68 85 8 309 6 25 26 36 46 63 49 2 10 7 316 343 350 306 317 318 315 315 297 267 208 223 269 250 221 217 218 222 225 220 214 224 245 273 290 284 239 220 225 219 207 199 199 224 290 308 327 334 330 329 324 316 311 308 311 317 314 309 311 310 311 314 314 313 314 314 314 312 309 309 313 313 312 312 311 310 310 310 309 307
270 2 4 9 34 337 28 35 25 27 24 9 17 24 6 339 309 311 283 271 318 307 301 310 308 287 185 192 234 227 217 217 220 230 234 222 228 242 257 276 285 285 269 242 223 216 209 206 220 243 278 298 309 320 318 313 312 304 296 293 297 306 308 307 310 311 310 311 310 310 312 312 310 309 308 308 310 310 310 311 311 311 311 309 308 307
339 18 334 341 23 61 87 51 17 54 61 34 17 15 348 342 340 315 348 91 284 288 285 294 297 288 180 179 213 222 221 224 227 236 240 234 245 254 262 274 279 286 281 247 217 221 219 217 234 256 274 285 290 300 302 299 301 301 295 291 292 301 306 307 310 311 311 312 309 309 310 310 310 311 310 311 312 311 311 311 311 310 309 307 306 306
330 314 323 347 22 59 101 93 347 94 95 79 54 26 345 329 327 328 340 345 281 266 253 265 274 281 141 173 209 224 221 225 226 227 238 245 249 249 254 270 277 275 265 230 217 226 225 227 243 259 269 274 275 284 297 301 302 303 300 294 294 301 306 309 309 308 310 311 307 308 310 309 311 313 313 313 311 309 308 308 308 308 306 304 304 304
282 338 336 348 69 116 137 140 256 193 111 82 64 35 2 310 291 298 318 333 300 268 267 277 272 277 140 183 214 224 220 227 229 233 247 255 256 260 265 276 284 267 232 213 221 227 224 232 245 253 263 270 278 294 306 307 304 305 304 299 298 302 305 309 309 308 310 310 309 310 311 310 311 311 310 309 307 306 306 306 306 306 305 304 304 303
2 21 334 323 24 121 170 207 249 218 52 35 9 2 350 314 278 267 281 301 268 239 148 286 281 287 139 176 212 223 226 237 243 245 251 257 265 277 282 284 292 287 250 215 219 228 226 233 245 252 266 281 297 308 308 305 304 306 305 303 302 304 307 309 309 310 312 311 311 311 309 308 308 306 304 304 304 304 305 306 306 306 305 304 304 303
5 15 343 24 39 359 317 307 306 318 345 6 175 332 327 315 284 260 272 281 269 212 159 255 276 292 280 218 245 240 229 241 256 258 255 259 270 283 289 287 291 295 279 240 224 232 232 237 250 263 282 297 303 304 300 299 301 303 303 303 303 305 307 308 308 309 309 308 307 306 304 303 303 302 302 302 303 304 304 305 305 305 305 304 303 302
116 86 357 354 244 275 287 291 306 320 298 277 234 270 273 283 285 259 261 277 289 299 265 236 250 282 292 298 305 296 266 252 263 270 265 269 279 285 292 294 292 294 286 252 230 239 241 245 260 277 291 296 295 291 289 291 294 297 299 299 299 300 301 301 302 302 302 302 300 298 298 298 299 300 300 301 302 303 304 304 304 304 304 303 302 301
141 101 14 270 255 257 266 278 289 290 275 271 241 218 233 246 245 230 249 267 295 303 278 241 247 282 291 299 309 310 296 270 268 278 278 279 285 287 293 298 296 295 290 264 237 239 245 252 269 285 290 288 287 285 282 284 287 290 292 292 293 294 293 294 296 296 296 295 294 295 295 296 298 298 299 301 303 303 303 303 304 304 304 302 299 296
122 8 81 187 267 271 263 265 267 258 263 258 228 220 225 226 221 222 239 241 217 241 270 285 292 288 286 294 304 305 291 272 274 283 284 282 285 289 295 298 297 297 295 281 257 242 242 254 274 285 286 284 284 283 280 280 283 286 288 288 290 289 287 290 292 292 293 293 293 295 296 298 298 298 300 303 303 304 305 305 305 304 302 301 298 295
189 188 121 168 282 280 257 227 224 253 263 248 228 225 225 229 234 236 240 239 232 243 263 281 287 283 280 287 295 293 270 264 272 280 283 285 290 294 297 298 299 300 297 285 266 247 243 260 275 279 279 281 283 280 277 277 280 284 286 286 287 285 284 289 290 289 291 291 291 294 296 296 296 297 300 302 304 305 305 305 304 301 302 304 304 306
301 25 96 136 277 277 235 191 224 258 265 260 243 225 222 238 248 242 237 239 242 250 261 273 280 282 278 267 270 272 269 273 277 282 287 291 294 297 298 299 301 301 296 282 262 250 254 266 272 272 274 279 282 278 274 274 278 282 283 283 283 281 283 287 287 286 286 288 290 293 294 294 295 296 299 302 304 302 300 301 303 305 308 307 306 307
2 44 114 129 288 264 161 231 279 276 265 264 255 233 222 225 237 239 231 228 237 256 273 277 274 283 295 290 278 280 283 285 286 288 292 294 295 296 298 299 301 299 291 273 253 251 262 268 267 269 274 278 279 274 269 271 277 280 281 282 280 280 283 284 284 283 284 287 290 292 293 294 295 297 300 301 300 297 299 304 308 310 309 306 307 308
16 232 144 341 295 248 130 312 303 291 263 264 251 227 219 215 229 247 247 239 237 246 269 273 269 287 305 305 293 291 294 293 292 292 294 295 294 295 298 299 299 295 280 259 252 258 267 270 269 271 274 276 275 269 265 267 273 278 280 280 278 280 282 282 281 282 283 286 289 290 292 294 295 296 297 296 296 299 304 307 310 311 308 306 310 310
172 275 83 76 286 280 331 321 300 258 280 318 67 166 197 207 228 246 253 252 245 241 246 256 267 284 294 294 290 295 297 296 294 293 293 293 292 294 298 300 297 284 260 249 253 262 267 269 271 272 272 275 274 267 263 265 270 276 278 277 276 279 281 281 281 282 283 286 289 290 292 293 293 292 292 294 299 301 304 306 310 311 309 306 307 305
157 128 117 129 277 275 326 334 314 291 332 46 138 159 178 205 235 257 266 260 249 249 251 255 267 277 282 285 289 293 294 294 294 292 289 288 287 289 294 295 284 258 255 259 260 264 266 267 270 271 272 275 273 264 261 266 271 275 276 275 277 279 280 281 281 281 284 287 288 290 292 291 289 289 292 297 299 299 302 306 308 309 306 303 302 301
183 134 154 208 253 269 322 1 306 307 315 203 181 186 190 223 250 277 283 261 232 238 251 257 269 275 278 287 292 293 295 296 292 287 285 284 282 279 279 279 269 259 262 270 271 268 266 266 267 270 272 272 268 261 259 266 272 273 273 275 277 279 280 280 279 280 284 286 288 290 291 289 290 293 296 299 299 301 305 307 308 310 307 302 302 302
188 158 202 263 209 284 307 270 250 292 302 261 174 184 185 226 249 291 299 278 227 227 252 260 266 269 281 295 298 298 301 299 291 287 283 273 261 250 249 255 263 268 270 272 269 263 260 263 264 266 268 266 263 259 258 265 270 269 271 275 275 277 278 276 275 278 283 286 287 288 288 290 294 296 298 301 301 302 307 310 310 311 308 302 302 303
82 256 252 260 243 149 296 288 285 295 296 208 149 162 142 115 128 148 288 285 246 213 229 242 255 270 291 303 304 305 308 302 292 291 273 224 232 232 240 252 256 261 264 264 261 256 254 257 258 261 264 263 260 258 259 263 266 266 270 272 273 275 275 272 273 278 283 285 285 283 287 297 300 298 296 300 303 304 308 310 310 310 307 302 301 301
79 10 151 213 257 185 225 283 273 254 276 295 152 165 146 128 144 161 282 288 227 174 197 224 257 277 294 304 305 308 309 295 289 296 310 290 275 245 236 252 256 254 255 250 249 253 254 255 257 260 263 262 260 262 261 260 262 265 268 269 272 274 271 270 275 280 283 283 283 287 295 301 303 299 297 301 306 307 308 309 310 309 305 299 299 298
125 34 215 220 243 191 192 252 244 242 266 212 155 162 149 137 144 221 287 288 158 174 204 235 270 282 293 301 304 301 290 279 283 295 303 304 300 279 251 253 253 253 256 249 244 250 253 253 255 258 261 263 264 266 264 261 262 264 267 271 273 270 269 274 280 282 282 281 285 292 298 300 299 300 301 305 307 308 309 310 309 309 304 299 300 298
154 35 305 245 252 199 198 248 265 260 259 205 162 152 141 142 171 247 279 286 157 209 235 254 274 284 294 302 302 293 283 280 283 291 297 299 298 292 284 280 266 250 254 253 247 249 252 250 252 258 264 267 268 267 263 260 262 264 265 267 266 268 277 284 284 279 277 281 285 288 293 296 299 302 305 307 309 309 308 309 309 309 306 300 298 297
182 183 207 223 238 197 200 245 275 277 250 149 134 137 148 181 250 261 274 315 269 275 282 277 277 284 291 295 295 288 285 286 288 291 294 293 293 294 294 292 284 261 249 250 250 249 252 253 254 260 266 268 267 266 263 260 262 263 261 260 264 275 285 287 279 275 278 282 283 284 291 300 303 306 308 309 310 309 307 308 310 310 308 302 299 300
166 197 237 208 192 192 209 247 289 303 240 140 132 135 172 214 263 293 310 302 279 282 288 282 283 287 283 284 288 285 285 290 291 292 291 290 292 294 294 295 292 280 260 252 253 251 251 257 259 261 267 270 268 265 262 260 261 260 259 264 273 283 289 285 277 278 281 283 286 290 297 303 307 308 310 311 311 310 308 309 311 312 312 308 301 299
178 196 248 232 193 189 225 221 236 336 139 160 171 213 221 226 257 293 301 294 285 285 288 288 293 291 276 276 287 289 290 293 294 293 291 290 293 294 294 295 294 286 272 258 256 255 253 257 261 264 268 269 268 265 262 259 259 259 262 271 280 287 290 287 283 281 281 284 290 294 299 305 307 309 310 311 311 309 307 308 310 312 312 308 298 293
190 186 234 263 212 208 249 252 257 325 169 187 211 246 256 259 269 275 277 279 284 287 290 293 295 291 280 283 290 291 289 290 292 292 289 290 293 294 295 296 293 285 275 266 262 259 258 259 262 266 268 269 269 266 265 265 263 263 269 278 286 289 289 288 285 283 283 287 291 296 300 304 307 309 310 311 311 308 305 305 306 306 305 301 292 287
203 150 140 256 235 265 272 260 256 271 270 245 232 243 257 268 271 267 266 269 273 280 289 293 290 289 289 289 290 287 282 286 291 290 287 289 291 291 294 295 290 279 269 268 265 262 262 261 262 263 266 272 273 270 271 275 273 270 277 285 290 290 289 288 285 284 286 288 292 297 301 304 305 307 310 312 311 309 306 302 298 296 297 294 286 284
190 151 196 232 235 298 274 243 226 256 270 271 267 261 257 257 257 255 259 265 272 283 291 291 289 291 290 285 282 282 285 291 293 289 286 288 290 292 295 292 285 275 269 268 267 267 265 261 261 263 266 273 278 280 282 285 283 281 285 289 291 290 290 287 284 284 285 288 292 296 299 301 302 304 307 310 310 308 305 300 295 291 288 287 287 289
147 156 219 235 224 235 259 267 274 274 271 269 270 270 266 261 261 257 255 266 280 287 286 284 283 285 287 286 285 286 290 294 293 287 285 287 289 293 294 286 276 272 271 268 267 267 263 258 260 264 266 272 281 286 288 289 289 290 291 291 292 292 290 286 283 283 284 286 290 293 295 297 299 299 300 304 306 306 303 299 294 287 285 291 292 288
111 169 211 228 239 251 265 277 287 287 279 262 247 252 262 266 269 270 267 269 277 281 283 284 279 272 274 281 286 285 287 292 291 285 285 289 292 295 294 288 280 274 271 270 268 265 264 264 265 266 269 275 283 288 289 291 292 293 293 292 293 292 289 285 284 284 284 285 286 289 292 294 295 296 297 299 301 303 303 301 298 290 288 294 294 285
153 213 204 192 264 264 263 272 291 301 297 288 276 270 269 264 269 277 277 277 280 285 290 292 289 283 277 278 282 285 285 288 288 285 284 288 293 295 294 291 286 279 273 273 270 265 264 268 272 273 274 279 284 287 289 292 294 295 295 294 294 292 288 285 283 281 282 283 283 286 289 290 290 293 295 294 294 296 300 305 306 298 288 287 287 285
199 216 186 184 238 254 260 275 288 286 284 287 293 296 289 275 276 279 280 284 289 293 294 292 294 295 292 289 291 293 291 289 289 288 287 290 294 295 292 287 281 278 278 276 272 267 266 271 276 278 278 281 285 287 289 292 295 296 297 296 295 293 289 284 279 276 277 278 279 282 286 288 290 292 293 292 290 290 293 301 307 307 302 297 291 289